When you browse on this site, cookies collect data to enhance your experience and personalize the content and advertising you see.
Visit our Privacy Policy to learn more. By continuing to use the site, you agree to this use of cookies and data.
  • In Czech Republic
  • List of Countries
  • For 7 days
  • Water Temperature
  • Weather Map
  • Weather Widgets
  • user-avatar
    Login

    Hourly Weather Wlora

    Today, 22 August, Thursday

    Time Temperature Precipitation Wind Pressure Humidity
    00:00 +27°C° 0 mm 1 mps 762 mmHg 60%
    01:00 +27°C° 0 mm 1 mps 762 mmHg 60%
    02:00 +26°C° 0 mm 1 mps 762 mmHg 60%
    03:00 +26°C° 0 mm 1 mps 762 mmHg 61%
    04:00 +26°C° 0 mm 1 mps 762 mmHg 62%
    05:00 +27°C° 0 mm 1 mps 762 mmHg 57%
    06:00 +29°C° 0 mm 1 mps 762 mmHg 52%
    07:00 +30°C° 0 mm 1 mps 762 mmHg 46%
    08:00 +32°C° 0 mm 1 mps 763 mmHg 42%
    09:00 +34°C° 0 mm 1 mps 763 mmHg 38%
    10:00 +35°C° 0 mm 1 mps 763 mmHg 33%
    11:00 +36°C° 0 mm 2 mps 762 mmHg 33%
    12:00 +36°C° 0 mm 2 mps 762 mmHg 33%
    13:00 +37°C° 0 mm 3 mps 762 mmHg 33%
    14:00 +36°C° 0 mm 3 mps 762 mmHg 35%
    15:00 +35°C° 0 mm 3 mps 761 mmHg 38%
    16:00 +35°C° 0 mm 3 mps 761 mmHg 40%
    17:00 +33°C° 0 mm 3 mps 761 mmHg 45%
    18:00 +30°C° 0 mm 2 mps 761 mmHg 50%
    19:00 +29°C° 0 mm 2 mps 761 mmHg 55%
    20:00 +28°C° 0 mm 3 mps 762 mmHg 55%
    21:00 +28°C° 0 mm 3 mps 762 mmHg 56%
    22:00 +28°C° 0 mm 3 mps 762 mmHg 56%
    23:00 +28°C° 0 mm 3 mps 762 mmHg 54%

    Tomorrow, 23 August, Friday

    Time Temperature Precipitation Wind Pressure Humidity
    00:00 +28°C° 0 mm 2 mps 762 mmHg 52%
    01:00 +28°C° 0 mm 2 mps 762 mmHg 50%
    02:00 +28°C° 0 mm 2 mps 762 mmHg 50%
    03:00 +27°C° 0 mm 3 mps 762 mmHg 50%
    04:00 +27°C° 0 mm 3 mps 762 mmHg 50%
    05:00 +29°C° 0 mm 3 mps 762 mmHg 47%
    06:00 +30°C° 0 mm 4 mps 762 mmHg 43%
    07:00 +32°C° 0 mm 4 mps 762 mmHg 40%
    08:00 +34°C° 0 mm 4 mps 762 mmHg 36%
    09:00 +36°C° 0 mm 4 mps 762 mmHg 32%
    10:00 +38°C° 0 mm 4 mps 763 mmHg 29%
    11:00 +37°C° 0 mm 4 mps 762 mmHg 32%
    12:00 +36°C° 0 mm 5 mps 762 mmHg 36%
    13:00 +36°C° 0 mm 5 mps 761 mmHg 39%
    14:00 +36°C° 0 mm 5 mps 761 mmHg 38%
    15:00 +35°C° 0 mm 4 mps 761 mmHg 38%
    16:00 +35°C° 0 mm 4 mps 761 mmHg 37%
    17:00 +34°C° 0 mm 4 mps 761 mmHg 41%
    18:00 +32°C° 0 mm 4 mps 761 mmHg 45%
    19:00 +30°C° 0 mm 4 mps 761 mmHg 48%
    20:00 +30°C° 0 mm 4 mps 761 mmHg 48%
    21:00 +29°C° 0 mm 4 mps 761 mmHg 48%
    22:00 +29°C° 0 mm 4 mps 761 mmHg 48%
    23:00 +29°C° 0 mm 4 mps 761 mmHg 50%

    Day after tomorrow, 24 August, Saturday

    Time Temperature Precipitation Wind Pressure Humidity
    00:00 +28°C° 0 mm 5 mps 761 mmHg 53%
    01:00 +27°C° 0 mm 5 mps 761 mmHg 55%
    02:00 +28°C° 0 mm 5 mps 761 mmHg 54%
    03:00 +28°C° 0 mm 4 mps 761 mmHg 52%
    04:00 +28°C° 0 mm 3 mps 761 mmHg 51%
    05:00 +29°C° 0 mm 3 mps 761 mmHg 47%
    06:00 +31°C° 0 mm 3 mps 761 mmHg 43%
    07:00 +33°C° 0 mm 3 mps 761 mmHg 39%
    08:00 +34°C° 0 mm 3 mps 761 mmHg 38%
    09:00 +35°C° 0 mm 3 mps 761 mmHg 37%
    10:00 +36°C° 0 mm 3 mps 761 mmHg 35%
    11:00 +36°C° 0 mm 4 mps 761 mmHg 39%
    12:00 +35°C° 0 mm 4 mps 761 mmHg 42%
    13:00 +34°C° 0 mm 4 mps 761 mmHg 45%
    14:00 +35°C° 0 mm 5 mps 760 mmHg 43%
    15:00 +35°C° 0 mm 5 mps 760 mmHg 42%
    16:00 +35°C° 0 mm 5 mps 760 mmHg 40%
    17:00 +34°C° 0 mm 5 mps 760 mmHg 44%
    18:00 +33°C° 0 mm 5 mps 760 mmHg 47%
    19:00 +30°C° 0 mm 5 mps 760 mmHg 50%
    20:00 +30°C° 0 mm 5 mps 760 mmHg 53%
    21:00 +29°C° 0 mm 6 mps 761 mmHg 56%
    22:00 +29°C° 0 mm 6 mps 761 mmHg 59%
    23:00 +28°C° 0 mm 6 mps 761 mmHg 62%

    25 August, Sunday

    Time Temperature Precipitation Wind Pressure Humidity
    00:00 +27°C° 0 mm 5 mps 760 mmHg 66%
    01:00 +27°C° 0 mm 5 mps 760 mmHg 69%
    02:00 +27°C° 0 mm 4 mps 760 mmHg 65%
    03:00 +27°C° 0 mm 4 mps 760 mmHg 60%
    04:00 +27°C° 0 mm 3 mps 760 mmHg 56%
    05:00 +28°C° 0 mm 3 mps 760 mmHg 51%
    06:00 +30°C° 0 mm 3 mps 760 mmHg 45%
    07:00 +31°C° 0 mm 3 mps 760 mmHg 40%
    08:00 +34°C° 0 mm 3 mps 760 mmHg 38%
    09:00 +35°C° 0 mm 4 mps 760 mmHg 35%
    10:00 +36°C° 0 mm 4 mps 761 mmHg 33%
    11:00 +36°C° 0 mm 5 mps 760 mmHg 36%
    12:00 +36°C° 0 mm 5 mps 760 mmHg 38%
    13:00 +36°C° 0 mm 6 mps 760 mmHg 41%
    14:00 +36°C° 0 mm 6 mps 760 mmHg 41%
    15:00 +35°C° 0 mm 5 mps 759 mmHg 42%
    16:00 +35°C° 0 mm 5 mps 759 mmHg 42%
    17:00 +33°C° 0 mm 5 mps 759 mmHg 49%
    18:00 +32°C° 0 mm 5 mps 759 mmHg 56%
    19:00 +29°C° 0 mm 5 mps 759 mmHg 63%
    20:00 +29°C° 0 mm 5 mps 760 mmHg 62%
    21:00 +29°C° 0 mm 5 mps 760 mmHg 61%
    22:00 +28°C° 0 mm 5 mps 760 mmHg 60%
    23:00 +28°C° 0 mm 5 mps 760 mmHg 59%

    26 August, Monday

    Time Temperature Precipitation Wind Pressure Humidity
    00:00 +28°C° 0 mm 5 mps 760 mmHg 57%
    01:00 +28°C° 0 mm 5 mps 760 mmHg 56%
    02:00 +28°C° 0 mm 4 mps 760 mmHg 55%
    03:00 +28°C° 0 mm 4 mps 760 mmHg 53%
    04:00 +27°C° 0 mm 3 mps 760 mmHg 52%
    05:00 +29°C° 0 mm 3 mps 760 mmHg 48%
    06:00 +30°C° 0 mm 3 mps 760 mmHg 44%
    07:00 +33°C° 0 mm 3 mps 761 mmHg 40%
    08:00 +34°C° 0 mm 3 mps 761 mmHg 37%
    09:00 +35°C° 0 mm 3 mps 761 mmHg 34%
    10:00 +37°C° 0 mm 4 mps 761 mmHg 31%
    11:00 +36°C° 0 mm 4 mps 761 mmHg 33%
    12:00 +36°C° 0 mm 5 mps 761 mmHg 35%
    13:00 +36°C° 0 mm 5 mps 760 mmHg 37%
    14:00 +35°C° 0 mm 5 mps 760 mmHg 39%
    15:00 +34°C° 0 mm 5 mps 760 mmHg 41%
    16:00 +34°C° 0 mm 5 mps 760 mmHg 44%
    17:00 +33°C° 0 mm 5 mps 760 mmHg 46%
    18:00 +32°C° 0 mm 5 mps 761 mmHg 49%
    19:00 +30°C° 0 mm 5 mps 761 mmHg 51%
    20:00 +29°C° 0 mm 5 mps 761 mmHg 51%
    21:00 +29°C° 0 mm 5 mps 761 mmHg 50%
    22:00 +29°C° 0 mm 5 mps 761 mmHg 50%
    23:00 +28°C° 0 mm 5 mps 761 mmHg 50%

    27 August, Tuesday

    Time Temperature Precipitation Wind Pressure Humidity
    00:00 +28°C° 0 mm 5 mps 761 mmHg 51%
    01:00 +27°C° 0 mm 4 mps 761 mmHg 52%
    02:00 +27°C° 0 mm 4 mps 761 mmHg 52%
    03:00 +27°C° 0 mm 3 mps 761 mmHg 51%
    04:00 +27°C° 0 mm 3 mps 761 mmHg 51%
    05:00 +28°C° 0 mm 3 mps 761 mmHg 48%
    06:00 +30°C° 0 mm 3 mps 761 mmHg 44%
    07:00 +31°C° 0 mm 3 mps 761 mmHg 40%
    08:00 +34°C° 0 mm 3 mps 761 mmHg 37%
    09:00 +35°C° 0 mm 3 mps 761 mmHg 34%
    10:00 +37°C° 0 mm 3 mps 762 mmHg 31%
    11:00 +36°C° 0 mm 3 mps 761 mmHg 32%
    12:00 +35°C° 0 mm 3 mps 761 mmHg 34%
    13:00 +35°C° 0 mm 4 mps 761 mmHg 36%
    14:00 +35°C° 0 mm 4 mps 761 mmHg 36%
    15:00 +35°C° 0 mm 4 mps 761 mmHg 36%
    16:00 +35°C° 0 mm 4 mps 761 mmHg 36%
    17:00 +33°C° 0 mm 4 mps 761 mmHg 41%
    18:00 +30°C° 0 mm 4 mps 761 mmHg 45%
    19:00 +29°C° 0 mm 3 mps 761 mmHg 50%
    20:00 +28°C° 0 mm 3 mps 761 mmHg 52%
    21:00 +27°C° 0 mm 3 mps 761 mmHg 55%
    22:00 +27°C° 0 mm 3 mps 761 mmHg 58%
    23:00 +26°C° 0 mm 3 mps 761 mmHg 57%
    Show more